AirNav   Air Wisconsin Up To $57,000 Bonus
 
 750 users online  

99NY Hibbard's Airport
Wilson, New York, USA

GOING TO WILSON?


FAA INFORMATION EFFECTIVE 05 DECEMBER 2019

Location

FAA Identifier: 99NY
Lat/Long: 43-14-00.2020N 078-47-14.1300W
43-14.003367N 078-47.235500W
43.2333894,-78.7872583
(estimated)
Elevation: 410 ft. / 125 m (estimated)
Variation: 10W (1985)
From city: 5 miles SE of WILSON, NY
Time zone: UTC -5 (UTC -4 during Daylight Saving Time)
Zip code: 14108

Airport Operations

Airport use: Private use. Permission required prior to landing
Activation date: 11/1974
Control tower: no
ARTCC: CLEVELAND CENTER
FSS: BUFFALO FLIGHT SERVICE STATION
Attendance: DAYLIGHT HOURS
Wind indicator: yes
Segmented circle: no

Airport Communications

WX ASOS at IAG (10 nm SW): PHONE 716-297-6984
WX ASOS at BUF (18 nm S): PHONE 716-635-0532

Nearby radio navigation aids

VOR radial/distance  VOR name  Freq  Var
BUFr349/19.3BUFFALO VOR/DME116.4008W

 
NDB name  Hdg/Dist  Freq  Var  ID
KATHI027/7.832910WIA .. .-

Airport Services

Runway Information

Runway 1/19

Dimensions: 1700 x 100 ft. / 518 x 30 m
Surface: turf
RUNWAY 1  RUNWAY 19
Traffic pattern: leftleft
Obstructions: nonepline

Airport Ownership and Management from official FAA records

Ownership: Privately-owned
Owner: ALBERT W. HIBBARD
IRISH ROAD
WILSON, NY 14172
Phone 716-751-6003
Manager: ALBERT W. HIBBARD
IRISH ROAD
WILSON, NY 14172
Phone 716-751-6003

Airport Operational Statistics

Aircraft based on the field: 3
Single engine airplanes: 3
    

Additional Remarks

FOR CD CTC CLEVELAND ARTCC AT 440-774-0490.

Instrument Procedures

There are no published instrument procedures at 99NY.

Some nearby airports with instrument procedures:

KIAG - Niagara Falls International Airport (10 nm SW)
KBUF - Buffalo Niagara International Airport (18 nm S)
9G3 - Akron Airport/Jesson Field (18 nm SE)
9G0 - Buffalo Airfield (22 nm S)
9G6 - Pine Hill Airport (23 nm E)
 
Loc | Ops | Rwys | IFR | FBO | Links
Com | Nav | Svcs | Stats | Notes
Area around 99NY (Hibbard's Airport)
 
Road maps at: MapQuest Bing Google
 
Aerial photo
No photo
 
Sectional chart

 
Airport distance calculator
Flying to Hibbard's Airport? Find the distance to fly.

From to 99NY

Sunrise and sunset
Times for 10-Dec-2019
 Local
(UTC-5)
 Zulu
(UTC)
Morning civil twilight07:0512:05
Sunrise07:3712:37
Sunset16:3921:39
Evening civil twilight17:1122:11

Current date and time
Zulu (UTC)  10-Dec-2019 05:49:03
Local (UTC-5)  10-Dec-2019 00:49:03
 
METAR
KIAG 
9nm SW 
100453Z AUTO 24015KT 10SM OVC013 11/09 A2946 RMK AO2 SLP982 T01060089 401060067
CYSN 
17nm W 
100200Z 23018G23KT 10SM OVC012 11/11 A2944 RMK SC8 LAST STFD OBS/NEXT 101200 UTC SLP973 DENSITY ALT 500FT
KBUF 
18nm S 
100537Z 23019G26KT 10SM -RA BKN008 BKN014 OVC018 11/09 A2947 RMK AO2 PK WND 24030/0500 RAB02E11B37 P0000 T01110094
CWWZ 
19nm W 
100500Z AUTO 23010G15KT 09/08 RMK AO1 PK WND 23019/0434 SLP973 T00850076 53003
TAF
KIAG 
9nm SW 
100303Z 1003/1024 23015G23KT P6SM OVC014 TEMPO 1003/1005 6SM -SHRA BR OVC006 FM100700 23018G30KT P6SM BKN012 FM101200 26015G25KT P6SM OVC020 FM102300 27011KT P6SM BKN040
CYSN 
17nm W 
091938Z 0920/1002 18010G20KT 3SM -RA BR OVC015 TEMPO 0920/1002 6SM -RA BR OVC025 BECMG 0922/0924 22012G22KT RMK NXT FCST WILL BE ISSUED AT 101345Z
KBUF 
18nm S 
100303Z 1003/1024 22010KT P6SM FEW011 OVC017 TEMPO 1003/1006 6SM -SHRA BR OVC006 FM100800 24025G35KT P6SM OVC012 FM101300 26020G30KT P6SM OVC020 FM102100 27015G25KT P6SM BKN040
NOTAMs
Click for the latest NOTAMs
NOTAMs are issued by the DoD/FAA and will open in a separate window not controlled by AirNav.

 

 
 

Would you like to see your business listed on this page?

 If your business provides an interesting product or service to pilots, flight crews, aircraft, or users of the Hibbard's Airport, you should consider listing it here.  To start the listing process, click on the button below
 
Add a business
 

Other Pages about Hibbard's Airport

Update a link
 
Copyright © AirNav, LLC. All rights reserved. Privacy Policy  Contact